Location: Austin
(30.3000°N, 97.7500°W)
Time: 02:41:52
(UTC-06:00)

SMAP - Pass Details

Date: 20 November 2023
Orbit: 681 x 683 km, 98.1° (Epoch: 04 December)

Event Time Altitude Azimuth Distance (km) Brightness Sun altitude
Rises 18:04:03 0° 167° (SSE) 3,029 6.5 -7.2°
Reaches altitude 10° 18:06:17 10° 167° (SSE) 2,117 5.7 -7.7°
Maximum altitude 18:10:55 89° 250° (WSW) 687 3.1 -8.7°
Drops below altitude 10° 18:15:35 10° 348° (NNW) 2,127 5.6 -9.6°
Sets 18:17:49 0° 348° (NNW) 3,046 6.4 -10.1°
